QPF
0.02 0.01 0.00 0.00 0.00 0.00 0.00 0.00 0.00 0.00 0.00 0.00 0.00 0.00 0.00 0.00 0.00 0.00 0.00 0.00 0.00 0.00 0.00 0.00 0.00 0.00 0.00 0.00 0.00 0.00 0.00 0.00 0.00 0.00 0.00 0.02 0.03 0.02 0.03 0.11 0.19 0.13 0.07 0.02
0.01 0.00 0.00 0.00 0.00 0.00 0.00 0.00 0.00 0.00 0.00 0.00 0.00 0.00 0.00 0.00 0.00 0.00 0.00 0.00 0.00 0.00 0.00 0.00 0.00 0.00 0.00 0.00 0.00 0.00 0.00 0.00 0.00 0.00 0.00 0.00 0.01 0.00 0.01 0.03 0.09 0.07 0.04 0.01
0.00 0.00 0.01 0.00 0.00 0.00 0.00 0.00 0.00 0.00 0.00 0.00 0.00 0.00 0.00 0.00 0.00 0.00 0.00 0.00 0.00 0.00 0.00 0.00 0.00 0.00 0.00 0.00 0.00 0.00 0.00 0.00 0.01 0.03 0.00 0.00 0.00 0.00 0.00 0.01 0.01 0.00 0.00 0.00
0.00 0.00 0.00 0.00 0.00 0.00 0.00 0.00 0.00 0.00 0.00 0.00 0.00 0.00 0.00 0.00 0.00 0.00 0.00 0.00 0.00 0.00 0.00 0.00 0.00 0.00 0.00 0.00 0.00 0.00 0.00 0.00 0.00 0.00 0.00 0.00 0.00 0.00 0.00 0.00 0.00 0.00 0.00 0.00
0.00 0.00 0.00 0.00 0.00 0.00 0.00 0.00 0.00 0.00 0.00 0.00 0.00 0.00 0.00 0.00 0.00 0.00 0.00 0.00 0.00 0.00 0.00 0.00 0.00 0.00 0.00 0.00 0.00 0.00 0.00 0.00 0.00 0.00 0.00 0.00 0.00 0.00 0.00 0.01 0.01 0.00 0.00 0.00
0.00 0.00 0.00 0.00 0.00 0.00 0.00 0.00 0.00 0.00 0.00 0.00 0.00 0.00 0.00 0.00 0.00 0.00 0.00 0.00 0.00 0.00 0.00 0.00 0.00 0.00 0.00 0.00 0.00 0.00 0.05 0.02 0.00 0.00 0.00 0.00 0.01 0.01 0.02 0.08 0.03 0.01 0.01 0.01
0.00 0.00 0.00 0.00 0.00 0.00 0.00 0.00 0.00 0.00 0.00 0.00 0.00 0.00 0.00 0.00 0.00 0.00 0.00 0.00 0.00 0.00 0.00 0.00 0.00 0.00 0.00 0.00 0.00 0.01 0.03 0.00 0.00 0.00 0.00 0.00 0.07 0.02 0.02 0.08 0.03 0.01 0.01 0.00
0.00 0.00 0.00 0.00 0.00 0.00 0.00 0.00 0.00 0.00 0.00 0.00 0.00 0.00 0.00 0.00 0.00 0.00 0.00 0.00 0.00 0.00 0.00 0.00 0.00 0.00 0.00 0.00 0.00 0.00 0.00 0.00 0.01 0.00 0.00 0.00 0.00 0.00 0.01 0.04 0.04 0.01 0.01 0.00
0.00 0.00 0.00 0.00 0.00 0.00 0.00 0.00 0.00 0.00 0.00 0.00 0.00 0.00 0.00 0.00 0.00 0.00 0.00 0.00 0.00 0.00 0.00 0.00 0.00 0.00 0.00 0.00 0.00 0.00 0.00 0.00 0.01 0.02 0.01 0.02 0.00 0.00 0.00 0.01 0.04 0.01 0.02 0.01
0.00 0.00 0.00 0.00 0.00 0.00 0.00 0.00 0.00 0.00 0.00 0.00 0.00 0.00 0.00 0.00 0.00 0.00 0.00 0.00 0.00 0.00 0.00 0.00 0.00 0.00 0.00 0.00 0.00 0.00 0.00 0.00 0.00 0.00 0.06 0.06 0.01 0.00 0.00 0.00 0.03 0.01 0.03 0.05
0.00 0.00 0.00 0.00 0.00 0.00 0.00 0.00 0.00 0.00 0.00 0.00 0.00 0.00 0.00 0.00 0.00 0.00 0.00 0.00 0.00 0.00 0.00 0.00 0.00 0.00 0.00 0.00 0.00 0.00 0.00 0.00 0.00 0.01 0.00 0.01 0.00 0.00 0.02 0.04 0.05 0.07 0.07 0.10
0.00 0.00 0.00 0.00 0.00 0.00 0.00 0.00 0.00 0.00 0.00 0.00 0.00 0.00 0.00 0.00 0.00 0.00 0.00 0.00 0.00 0.00 0.00 0.00 0.00 0.00 0.00 0.00 0.00 0.00 0.00 0.01 0.00 0.03 0.04 0.03 0.02 0.04 0.06 0.09 0.10 0.10 0.11 0.11
0.00 0.00 0.00 0.00 0.00 0.00 0.00 0.00 0.00 0.00 0.00 0.00 0.00 0.00 0.00 0.00 0.00 0.00 0.00 0.00 0.00 0.00 0.00 0.00 0.00 0.00 0.00 0.00 0.00 0.00 0.00 0.00 0.00 0.03 0.04 0.01 0.04 0.03 0.02 0.05 0.06 0.03 0.01 0.01
0.00 0.00 0.00 0.00 0.00 0.00 0.00 0.00 0.00 0.00 0.00 0.00 0.00 0.00 0.00 0.00 0.00 0.00 0.00 0.00 0.00 0.00 0.00 0.00 0.00 0.00 0.00 0.00 0.00 0.00 0.00 0.00 0.00 0.00 0.01 0.02 0.03 0.01 0.01 0.00 0.00 0.00 0.00 0.00
0.00 0.00 0.00 0.00 0.00 0.00 0.00 0.00 0.00 0.00 0.00 0.00 0.00 0.00 0.00 0.00 0.00 0.00 0.00 0.00 0.00 0.00 0.00 0.00 0.00 0.00 0.00 0.00 0.00 0.00 0.00 0.00 0.00 0.00 0.01 0.02 0.01 0.00 0.00 0.00 0.00 0.00 0.00 0.00
0.00 0.00 0.00 0.00 0.00 0.00 0.00 0.00 0.00 0.00 0.00 0.00 0.00 0.00 0.00 0.00 0.00 0.00 0.00 0.00 0.00 0.00 0.00 0.00 0.00 0.00 0.00 0.00 0.00 0.00 0.00 0.00 0.00 0.00 0.00 0.00 0.00 0.00 0.00 0.00 0.00 0.00 0.00 0.00
0.00 0.00 0.00 0.00 0.00 0.00 0.00 0.00 0.00 0.00 0.00 0.00 0.00 0.00 0.00 0.00 0.00 0.00 0.00 0.00 0.00 0.00 0.00 0.00 0.00 0.00 0.00 0.00 0.00 0.00 0.00 0.00 0.00 0.00 0.00 0.00 0.00 0.00 0.00 0.00 0.00 0.00 0.00 0.00
0.00 0.00 0.01 0.00 0.00 0.00 0.00 0.00 0.00 0.00 0.00 0.00 0.00 0.00 0.00 0.00 0.00 0.00 0.00 0.00 0.00 0.00 0.00 0.00 0.00 0.00 0.00 0.00 0.00 0.00 0.00 0.00 0.00 0.00 0.00 0.00 0.00 0.00 0.00 0.00 0.00 0.00 0.00 0.00
0.00 0.01 0.00 0.00 0.00 0.00 0.00 0.00 0.00 0.00 0.00 0.00 0.00 0.00 0.00 0.00 0.00 0.01 0.01 0.00 0.00 0.00 0.00 0.00 0.00 0.00 0.02 0.00 0.00 0.00 0.00 0.00 0.00 0.00 0.00 0.00 0.00 0.00 0.00 0.00 0.00 0.00 0.00 0.00
0.00 0.00 0.00 0.00 0.00 0.00 0.00 0.00 0.00 0.00 0.00 0.00 0.00 0.00 0.00 0.00 0.00 0.04 0.01 0.00 0.00 0.00 0.00 0.00 0.00 0.00 0.00 0.00 0.00 0.00 0.00 0.00 0.00 0.00 0.00 0.00 0.00 0.00 0.00 0.00 0.00 0.00 0.00 0.00
0.00 0.00 0.00 0.00 0.00 0.00 0.00 0.00 0.00 0.00 0.00 0.00 0.00 0.00 0.00 0.00 0.00 0.00 0.00 0.00 0.00 0.00 0.00 0.02 0.01 0.01 0.01 0.00 0.00 0.00 0.00 0.00 0.00 0.00 0.00 0.00 0.00 0.00 0.00 0.00 0.00 0.00 0.00 0.00
0.00 0.00 0.00 0.00 0.00 0.00 0.00 0.00 0.00 0.00 0.00 0.00 0.00 0.00 0.00 0.00 0.00 0.00 0.00 0.00 0.00 0.00 0.01 0.07 0.18 0.04 0.01 0.00 0.00 0.00 0.00 0.00 0.00 0.00 0.00 0.00 0.00 0.00 0.00 0.00 0.00 0.00 0.00 0.00
0.00 0.00 0.00 0.00 0.00 0.00 0.00 0.00 0.00 0.00 0.00 0.00 0.00 0.00 0.00 0.00 0.00 0.00 0.00 0.00 0.00 0.00 0.01 0.01 0.00 0.00 0.00 0.00 0.00 0.00 0.00 0.00 0.00 0.00 0.00 0.00 0.00 0.00 0.00 0.00 0.00 0.00 0.00 0.00
0.00 0.00 0.00 0.00 0.00 0.00 0.00 0.00 0.00 0.00 0.00 0.00 0.00 0.00 0.00 0.00 0.00 0.00 0.00 0.00 0.00 0.01 0.00 0.00 0.00 0.00 0.00 0.00 0.00 0.00 0.00 0.00 0.00 0.00 0.00 0.00 0.00 0.00 0.00 0.00 0.00 0.00 0.00 0.00
0.00 0.00 0.00 0.00 0.00 0.00 0.00 0.00 0.00 0.00 0.00 0.00 0.00 0.00 0.00 0.00 0.00 0.00 0.00 0.00 0.00 0.00 0.00 0.00 0.00 0.00 0.00 0.00 0.00 0.00 0.00 0.00 0.00 0.00 0.00 0.00 0.00 0.00 0.00 0.00 0.00 0.00 0.00 0.00
0.00 0.00 0.00 0.00 0.00 0.00 0.00 0.00 0.00 0.00 0.01 0.01 0.01 0.00 0.00 0.00 0.00 0.00 0.00 0.00 0.01 0.01 0.02 0.01 0.00 0.00 0.00 0.00 0.00 0.00 0.00 0.00 0.00 0.00 0.00 0.00 0.00 0.00 0.00 0.00 0.00 0.00 0.00 0.00
0.00 0.00 0.00 0.00 0.00 0.00 0.00 0.00 0.00 0.00 0.01 0.04 0.07 0.03 0.00 0.00 0.00 0.00 0.00 0.00 0.01 0.03 0.05 0.02 0.00 0.00 0.00 0.00 0.00 0.00 0.00 0.00 0.00 0.00 0.00 0.00 0.00 0.00 0.00 0.00 0.00 0.00 0.00 0.00
MSLP
1010.81 1012.00 1013.38 1013.88 1014.35 1014.82 1015.39 1015.74 1016.00 1015.55 1015.47 1016.14 1016.26 1016.08 1015.45 1015.33 1015.36 1015.32 1015.64 1015.95 1016.41 1017.36 1018.06 1018.39 1018.51 1018.35 1018.21 1018.20 1018.17 1017.99 1017.78 1017.53 1017.01 1016.40 1015.35 1015.47 1015.48 1015.29 1015.51 1015.29 1014.85 1013.93 1012.85 1011.44
1011.11 1012.28 1013.34 1013.83 1014.33 1014.35 1015.10 1015.33 1015.66 1015.65 1015.71 1016.07 1016.19 1015.83 1015.80 1015.50 1015.43 1015.82 1016.13 1016.70 1017.13 1017.89 1018.86 1019.15 1018.77 1018.74 1018.49 1018.39 1018.27 1018.09 1018.15 1018.19 1017.90 1016.42 1015.65 1015.34 1015.10 1014.98 1014.92 1015.28 1015.19 1014.23 1013.43 1011.43
1011.28 1012.36 1013.29 1013.91 1014.20 1014.23 1014.86 1014.85 1015.55 1015.92 1016.06 1015.45 1015.28 1015.82 1015.99 1016.24 1016.40 1016.51 1016.60 1017.12 1017.57 1018.63 1019.27 1019.44 1019.51 1019.33 1018.82 1018.54 1018.15 1018.01 1018.40 1018.57 1018.42 1018.00 1016.95 1016.24 1015.60 1014.64 1014.34 1014.28 1014.46 1013.58 1012.70 1011.52
1011.37 1012.38 1013.26 1013.81 1014.02 1014.08 1014.27 1014.70 1014.76 1014.48 1015.66 1015.50 1015.39 1015.57 1016.11 1016.52 1016.86 1016.85 1017.19 1017.86 1018.47 1019.31 1019.67 1019.88 1019.88 1019.63 1019.10 1018.51 1018.09 1018.19 1018.51 1018.56 1018.30 1017.68 1016.87 1016.14 1015.43 1014.92 1014.43 1014.09 1013.51 1013.31 1011.96 1011.78
1011.61 1012.38 1013.18 1013.51 1013.81 1013.96 1014.38 1014.43 1014.38 1014.44 1015.16 1015.35 1015.69 1016.08 1016.64 1016.85 1017.07 1017.27 1017.70 1018.20 1018.86 1019.32 1019.70 1020.07 1020.09 1019.63 1019.33 1019.03 1018.52 1018.58 1018.64 1018.57 1018.16 1017.58 1016.47 1015.67 1015.38 1015.52 1014.94 1014.72 1014.22 1013.12 1012.76 1013.04
1011.65 1012.37 1013.02 1013.28 1013.60 1013.70 1013.93 1013.89 1013.60 1014.05 1015.45 1015.86 1016.23 1016.52 1016.78 1017.20 1017.24 1017.67 1017.77 1018.31 1018.83 1019.21 1019.25 1019.24 1018.96 1018.98 1019.14 1018.93 1019.06 1018.91 1018.98 1018.84 1018.32 1017.15 1016.37 1015.96 1016.26 1016.64 1016.19 1016.03 1015.68 1015.20 1014.64 1014.90
1011.79 1012.54 1013.11 1013.19 1013.42 1013.39 1013.82 1013.89 1013.94 1014.74 1016.08 1016.05 1016.08 1016.41 1016.76 1017.39 1017.57 1017.74 1017.84 1018.06 1018.62 1018.66 1018.48 1018.42 1018.36 1018.60 1018.52 1018.29 1018.54 1018.88 1018.97 1018.89 1018.63 1017.73 1016.79 1016.68 1017.38 1017.13 1016.70 1016.75 1016.62 1016.60 1016.17 1015.67
1012.06 1012.63 1012.98 1013.18 1013.53 1013.31 1013.68 1013.86 1014.05 1014.73 1016.05 1015.89 1016.25 1016.64 1017.05 1017.51 1017.86 1018.03 1017.89 1018.11 1018.21 1018.16 1018.71 1019.25 1019.35 1019.32 1019.02 1018.67 1018.79 1019.00 1019.31 1019.09 1019.06 1018.71 1017.87 1017.32 1016.91 1017.26 1017.67 1017.59 1017.71 1017.79 1017.31 1016.30
1012.23 1012.57 1012.99 1013.48 1013.51 1013.32 1013.76 1014.02 1013.94 1014.46 1015.63 1016.72 1016.05 1016.75 1017.18 1017.76 1018.13 1018.31 1018.35 1018.31 1018.16 1018.68 1019.76 1020.26 1020.51 1020.18 1019.73 1019.46 1019.12 1018.90 1019.23 1019.38 1020.09 1019.20 1018.86 1018.52 1018.47 1017.77 1017.45 1017.17 1018.29 1018.45 1017.97 1017.10
1012.52 1013.04 1013.29 1013.59 1013.45 1013.34 1013.73 1014.49 1014.15 1014.65 1016.09 1016.58 1016.27 1016.81 1017.20 1017.47 1018.13 1018.59 1018.83 1018.92 1019.24 1019.59 1021.14 1021.70 1021.65 1021.07 1020.51 1020.49 1020.65 1020.40 1020.62 1020.72 1020.92 1020.41 1019.98 1019.62 1019.33 1018.47 1017.38 1018.30 1020.00 1019.16 1018.80 1018.54
1012.91 1013.33 1013.51 1013.60 1013.62 1013.59 1013.72 1015.13 1014.65 1014.94 1016.75 1017.33 1016.87 1016.92 1017.09 1017.66 1018.24 1018.94 1019.38 1019.85 1020.26 1020.97 1022.34 1022.88 1022.67 1022.13 1021.43 1021.23 1021.10 1021.39 1021.90 1021.96 1021.66 1021.11 1021.02 1020.71 1020.08 1019.15 1019.44 1020.48 1020.03 1019.85 1019.39 1019.11
1013.24 1013.74 1013.80 1013.79 1013.92 1013.88 1014.09 1015.56 1015.13 1015.14 1016.73 1017.81 1017.41 1017.14 1017.13 1017.26 1017.79 1018.46 1019.32 1020.04 1020.47 1021.33 1022.60 1023.32 1023.18 1022.81 1022.20 1021.91 1021.78 1021.40 1021.74 1021.80 1021.81 1021.56 1021.28 1021.08 1020.92 1020.84 1020.79 1020.62 1020.35 1020.20 1019.94 1019.63
1013.54 1014.05 1014.11 1014.07 1014.33 1014.41 1014.75 1015.80 1015.89 1016.26 1017.57 1018.11 1017.83 1017.43 1017.34 1017.29 1017.64 1018.03 1019.13 1019.98 1020.14 1020.86 1021.43 1022.59 1023.03 1022.96 1022.36 1022.10 1021.77 1021.36 1021.12 1021.16 1021.40 1021.17 1021.36 1021.08 1021.19 1021.08 1021.07 1020.84 1020.50 1020.29 1019.97 1019.92
1013.88 1014.30 1014.48 1014.58 1015.00 1015.09 1015.36 1016.23 1016.54 1016.78 1017.94 1018.70 1018.54 1017.59 1017.53 1017.39 1017.68 1018.27 1018.77 1019.51 1019.98 1020.68 1021.48 1022.34 1022.92 1022.81 1021.88 1021.67 1021.29 1021.14 1020.77 1020.74 1020.79 1020.87 1021.01 1020.97 1020.91 1021.10 1021.02 1020.66 1020.60 1020.48 1020.37 1020.40
1014.22 1014.64 1015.01 1015.15 1015.41 1015.67 1016.05 1016.46 1017.05 1016.91 1017.70 1018.66 1018.96 1018.35 1017.65 1017.54 1018.01 1018.52 1018.95 1019.62 1020.46 1021.45 1022.19 1022.85 1022.84 1022.08 1021.68 1021.24 1020.96 1020.58 1020.14 1020.24 1020.62 1020.83 1021.07 1021.18 1021.11 1020.84 1020.52 1020.68 1020.85 1020.97 1021.05 1021.07
1014.53 1014.95 1015.41 1015.75 1015.82 1016.13 1016.65 1017.53 1017.41 1017.22 1017.59 1018.49 1019.55 1019.30 1018.30 1018.19 1018.34 1018.90 1019.39 1019.96 1020.81 1021.52 1022.32 1022.48 1022.11 1021.23 1021.29 1021.35 1020.91 1019.85 1019.75 1019.90 1020.10 1020.41 1020.58 1020.82 1020.80 1020.96 1020.81 1021.21 1021.45 1021.60 1021.76 1021.94
1014.93 1015.41 1015.88 1016.17 1016.35 1016.67 1017.37 1018.01 1018.11 1017.53 1017.97 1018.74 1020.25 1019.98 1018.76 1018.21 1018.73 1019.43 1019.89 1020.22 1020.90 1021.49 1022.08 1022.22 1021.92 1021.29 1020.94 1021.12 1020.58 1019.65 1019.62 1019.80 1020.13 1020.30 1020.44 1020.94 1021.20 1021.63 1021.70 1021.91 1022.16 1022.31 1022.48 1022.57
1015.28 1015.83 1016.20 1016.62 1016.79 1017.18 1017.69 1017.88 1017.79 1017.96 1018.64 1019.15 1020.49 1020.77 1019.57 1018.61 1019.44 1020.08 1020.32 1020.88 1021.29 1021.56 1021.77 1021.78 1021.56 1021.10 1020.94 1020.82 1019.97 1019.87 1019.87 1020.15 1020.52 1020.86 1021.01 1021.53 1022.01 1022.17 1022.44 1022.77 1022.90 1023.06 1023.22 1023.17
1015.70 1016.17 1016.60 1017.12 1017.70 1018.06 1018.26 1018.00 1018.23 1018.41 1019.35 1019.98 1020.87 1020.74 1020.00 1018.97 1019.85 1020.42 1020.85 1021.10 1021.82 1021.73 1021.71 1021.32 1021.24 1020.76 1020.43 1019.70 1020.05 1020.37 1020.49 1020.75 1021.34 1021.77 1022.11 1022.46 1022.76 1023.17 1023.46 1023.70 1023.92 1023.98 1023.94 1023.81
1015.98 1016.71 1017.36 1018.54 1018.29 1018.05 1018.24 1018.79 1019.17 1019.53 1019.94 1020.11 1020.86 1020.64 1020.01 1019.50 1020.14 1020.83 1021.39 1021.52 1021.70 1021.60 1020.83 1020.52 1020.49 1020.39 1020.24 1020.26 1020.59 1021.00 1021.37 1021.68 1021.98 1022.49 1023.15 1023.59 1023.95 1024.23 1024.43 1024.62 1024.75 1024.83 1024.77 1024.50
1016.55 1017.38 1017.90 1018.22 1018.09 1018.59 1019.32 1019.92 1020.24 1020.54 1020.68 1020.75 1020.60 1020.48 1020.08 1019.55 1020.06 1020.79 1021.13 1021.49 1021.42 1021.11 1020.30 1020.26 1019.98 1020.06 1020.39 1020.81 1021.35 1021.79 1022.20 1022.65 1023.19 1023.72 1024.28 1024.68 1024.95 1025.12 1025.18 1025.33 1025.44 1025.56 1025.47 1025.37
1016.14 1016.35 1017.47 1018.44 1018.93 1019.63 1020.28 1020.41 1020.59 1020.49 1020.26 1020.16 1020.12 1019.98 1020.05 1019.74 1019.60 1020.45 1021.23 1021.30 1021.40 1020.55 1020.03 1020.14 1019.73 1020.00 1020.57 1021.31 1022.16 1022.67 1023.16 1023.66 1024.26 1024.66 1025.08 1025.47 1025.71 1025.81 1025.91 1026.16 1026.26 1026.28 1026.09 1026.01
1016.29 1016.99 1018.40 1018.99 1019.74 1020.33 1020.57 1020.39 1020.24 1019.96 1019.39 1019.47 1019.47 1020.00 1019.91 1019.95 1020.18 1021.17 1021.57 1021.53 1021.05 1020.19 1020.20 1019.96 1020.15 1020.46 1020.95 1021.84 1022.75 1023.50 1024.10 1024.55 1025.04 1025.51 1025.87 1026.20 1026.36 1026.47 1026.61 1026.77 1026.78 1026.80 1026.74 1026.54
1017.14 1018.30 1019.40 1019.57 1020.16 1020.01 1019.60 1019.22 1019.08 1018.72 1018.60 1018.85 1019.20 1019.99 1020.17 1020.55 1020.95 1021.60 1022.09 1021.48 1020.90 1020.70 1020.83 1020.46 1020.67 1021.10 1021.79 1022.57 1023.29 1023.90 1024.74 1025.24 1025.66 1026.04 1026.45 1026.75 1026.86 1027.06 1027.20 1027.27 1027.23 1027.32 1027.24 1026.98
1017.86 1018.53 1019.59 1019.91 1019.59 1019.38 1019.20 1018.94 1018.85 1018.63 1018.26 1018.58 1019.36 1020.09 1020.52 1021.31 1021.58 1021.70 1021.66 1021.54 1021.14 1020.87 1020.85 1021.14 1021.46 1022.04 1022.55 1023.28 1023.99 1024.60 1025.23 1025.80 1026.20 1026.59 1026.90 1027.13 1027.35 1027.56 1027.63 1027.39 1027.29 1027.13 1027.22 1027.25
1018.22 1018.89 1019.51 1019.75 1019.75 1019.68 1019.53 1019.27 1019.16 1019.14 1018.88 1018.78 1019.36 1020.39 1020.90 1021.58 1021.53 1021.64 1021.62 1021.55 1021.18 1021.11 1021.23 1021.71 1022.20 1022.81 1023.35 1023.92 1024.49 1025.06 1025.51 1026.00 1026.50 1026.89 1027.24 1027.55 1027.81 1027.99 1028.02 1027.54 1027.39 1027.47 1027.38 1027.22
1018.95 1019.58 1019.70 1020.05 1019.99 1020.01 1019.92 1019.72 1019.76 1019.44 1019.34 1019.54 1019.77 1020.31 1020.53 1020.92 1021.43 1021.66 1021.46 1021.55 1021.52 1021.71 1022.19 1022.65 1023.14 1023.53 1024.00 1024.43 1024.94 1025.38 1025.80 1026.32 1026.76 1027.18 1027.52 1027.78 1027.63 1027.79 1028.10 1028.36 1028.11 1027.59 1027.39 1027.11
Thickness
5453 5450 5445 5447 5448 5450 5453 5454 5444 5463 5466 5458 5460 5467 5490 5490 5488 5491 5488 5484 5481 5469 5463 5458 5455 5451 5450 5446 5438 5427 5425 5413 5409 5422 5434 5431 5427 5427 5416 5421 5434 5440 5453 5465
5441 5437 5434 5436 5438 5445 5444 5447 5447 5452 5455 5444 5437 5474 5478 5482 5485 5478 5474 5470 5470 5465 5449 5439 5445 5439 5438 5429 5423 5416 5413 5400 5376 5422 5431 5438 5436 5440 5441 5430 5422 5431 5426 5451
5429 5426 5425 5426 5429 5435 5436 5443 5430 5439 5443 5456 5461 5462 5467 5462 5466 5467 5468 5464 5459 5446 5434 5432 5424 5417 5422 5415 5415 5422 5411 5402 5403 5398 5406 5413 5416 5442 5447 5447 5425 5441 5452 5451
5420 5417 5415 5416 5421 5425 5431 5432 5436 5448 5431 5442 5457 5462 5463 5454 5452 5461 5458 5446 5440 5428 5420 5413 5409 5409 5405 5410 5417 5414 5411 5393 5406 5408 5416 5422 5429 5432 5438 5441 5448 5439 5468 5459
5410 5408 5406 5410 5414 5419 5423 5424 5434 5441 5444 5451 5449 5450 5452 5455 5453 5444 5441 5432 5429 5423 5412 5394 5390 5398 5398 5396 5409 5405 5404 5380 5393 5400 5420 5431 5429 5412 5419 5420 5426 5443 5449 5440
5403 5402 5402 5405 5409 5414 5418 5428 5438 5439 5434 5439 5438 5438 5449 5444 5440 5442 5439 5424 5413 5410 5411 5408 5403 5400 5399 5401 5399 5396 5400 5400 5403 5413 5421 5421 5417 5397 5408 5410 5410 5420 5425 5418
5395 5394 5395 5400 5404 5412 5417 5425 5433 5423 5425 5437 5444 5445 5443 5431 5432 5429 5435 5428 5414 5418 5415 5410 5409 5407 5410 5410 5406 5398 5400 5397 5397 5406 5413 5405 5398 5405 5406 5403 5398 5399 5404 5411
5389 5390 5392 5396 5401 5410 5416 5423 5431 5433 5420 5441 5443 5437 5434 5431 5431 5426 5429 5424 5419 5417 5407 5389 5400 5396 5410 5413 5409 5402 5390 5398 5399 5388 5409 5422 5415 5401 5391 5391 5395 5386 5388 5399
5385 5387 5390 5392 5400 5410 5417 5423 5430 5433 5424 5424 5443 5429 5430 5415 5413 5418 5419 5419 5413 5406 5380 5381 5398 5384 5405 5396 5400 5408 5401 5396 5375 5398 5400 5395 5391 5394 5397 5401 5394 5379 5385 5390
5381 5383 5387 5391 5402 5412 5416 5416 5427 5427 5410 5420 5428 5416 5417 5423 5412 5399 5407 5411 5402 5395 5361 5354 5374 5390 5404 5386 5364 5363 5367 5360 5354 5369 5377 5388 5381 5383 5399 5389 5365 5372 5375 5375
5376 5379 5385 5393 5401 5408 5415 5411 5420 5422 5405 5410 5418 5420 5416 5409 5402 5397 5396 5388 5380 5368 5357 5349 5369 5371 5376 5371 5387 5366 5366 5358 5340 5360 5331 5359 5373 5385 5378 5364 5365 5366 5368 5370
5371 5375 5382 5391 5398 5405 5410 5404 5415 5417 5408 5404 5411 5415 5415 5414 5409 5396 5388 5385 5379 5361 5344 5340 5344 5362 5357 5370 5366 5378 5362 5368 5355 5374 5376 5368 5366 5365 5361 5359 5362 5361 5364 5366
5367 5370 5378 5387 5392 5398 5404 5402 5406 5406 5394 5393 5399 5407 5411 5410 5407 5402 5386 5380 5385 5379 5369 5350 5352 5359 5361 5345 5362 5367 5375 5376 5362 5366 5366 5367 5362 5361 5358 5360 5363 5364 5369 5367
5362 5366 5374 5381 5385 5391 5396 5395 5398 5400 5392 5379 5392 5405 5406 5406 5403 5398 5392 5386 5380 5375 5366 5352 5345 5355 5373 5371 5374 5367 5369 5380 5371 5365 5365 5367 5365 5360 5358 5364 5364 5364 5364 5362
5356 5361 5367 5374 5380 5384 5389 5392 5390 5395 5392 5379 5382 5392 5401 5402 5397 5392 5389 5382 5372 5359 5350 5336 5344 5358 5366 5368 5373 5373 5381 5377 5353 5351 5361 5360 5360 5361 5368 5365 5361 5358 5355 5354
5351 5356 5361 5366 5374 5380 5382 5373 5384 5390 5389 5381 5373 5382 5395 5394 5391 5386 5382 5374 5363 5353 5347 5341 5350 5364 5361 5346 5358 5384 5381 5377 5371 5365 5367 5362 5363 5363 5362 5357 5353 5350 5347 5343
5345 5350 5353 5359 5366 5373 5371 5371 5376 5384 5383 5375 5361 5371 5386 5392 5386 5376 5372 5367 5359 5351 5339 5332 5346 5355 5361 5342 5366 5382 5382 5375 5372 5370 5369 5364 5357 5351 5351 5347 5345 5342 5339 5336
5339 5344 5348 5353 5360 5365 5366 5371 5375 5377 5375 5375 5345 5358 5374 5388 5372 5370 5363 5356 5350 5346 5342 5339 5346 5351 5352 5356 5376 5377 5377 5372 5368 5360 5359 5352 5347 5345 5342 5338 5336 5332 5329 5328
5333 5339 5343 5347 5350 5351 5359 5366 5369 5371 5367 5360 5342 5352 5352 5380 5367 5364 5358 5352 5334 5343 5330 5341 5346 5352 5368 5372 5370 5365 5364 5364 5359 5351 5347 5342 5338 5334 5331 5327 5323 5321 5319 5320
5330 5332 5331 5322 5338 5351 5356 5353 5354 5352 5357 5358 5348 5356 5358 5376 5359 5362 5355 5351 5353 5351 5355 5354 5349 5352 5361 5360 5358 5356 5351 5350 5349 5344 5336 5332 5326 5322 5319 5315 5313 5311 5310 5311
5321 5321 5328 5333 5340 5343 5339 5336 5337 5339 5342 5350 5352 5353 5353 5366 5354 5344 5349 5341 5346 5344 5359 5363 5367 5366 5359 5353 5347 5345 5340 5337 5332 5327 5321 5316 5314 5311 5310 5307 5305 5302 5301 5299
5322 5330 5329 5329 5329 5332 5326 5327 5338 5347 5358 5352 5346 5353 5353 5356 5361 5348 5339 5344 5335 5349 5363 5364 5376 5359 5352 5346 5337 5331 5329 5325 5320 5316 5312 5308 5305 5302 5300 5296 5294 5293 5291 5287
5319 5318 5313 5315 5320 5303 5310 5320 5338 5337 5355 5349 5350 5345 5352 5348 5349 5339 5322 5330 5350 5353 5345 5360 5354 5348 5352 5338 5326 5321 5318 5314 5311 5307 5302 5298 5296 5294 5292 5289 5286 5282 5280 5278
5304 5302 5307 5314 5313 5321 5336 5344 5349 5351 5349 5353 5352 5343 5344 5333 5336 5320 5320 5331 5338 5322 5330 5360 5339 5339 5330 5326 5319 5316 5308 5304 5299 5299 5296 5291 5288 5284 5279 5273 5273 5268 5270 5268
5296 5305 5293 5304 5317 5321 5333 5335 5338 5347 5349 5352 5347 5337 5334 5319 5317 5324 5330 5330 5351 5337 5334 5326 5325 5326 5320 5315 5310 5305 5301 5291 5288 5284 5279 5277 5273 5268 5267 5267 5266 5267 5259 5254
5297 5301 5303 5307 5310 5318 5331 5336 5342 5335 5340 5342 5342 5326 5316 5317 5335 5336 5335 5328 5328 5326 5327 5321 5319 5315 5310 5306 5302 5296 5290 5285 5278 5274 5271 5266 5261 5260 5259 5258 5258 5254 5249 5245
5289 5302 5293 5296 5318 5322 5322 5326 5326 5325 5330 5343 5337 5329 5333 5328 5313 5326 5334 5328 5327 5317 5314 5311 5308 5305 5301 5297 5292 5284 5283 5278 5272 5266 5263 5262 5259 5254 5254 5251 5246 5246 5244 5239